CW8822 Caguas PR US current weather conditions

sailwx.info

Wind from 040 at 1 knots gusting 8

Air temperature 30.0° C
Dewpoint 23.7° C

Last reported at 2014-Jul-23 20:42 UTC.
Time now 2014-Jul-23 21:45 UTC

Location: N 18°12' W 066°01'.
View on Google Maps.

See reports from other nearby stations

  
Tides and Currents Weather Stations Pressure Air Temp Water Temp Dewpoint Dewpoint Depression Visibility Wind Speed Wind Dir Waves Ship Positions
date/time (UTC)wind fromknots sea level pressurealtimeterstation pressurevisibilityair tempwater tempwave heightnotes
2014-Jul-23 20:42 040 1 gusting 8 30.0
2014-Jul-23 20:28 163 0 gusting 8 30.0
2014-Jul-23 20:12 111 2 gusting 11 30.0
2014-Jul-23 19:57 109 1 gusting 9 30.0
2014-Jul-23 19:41 136 0 gusting 11 30.0
2014-Jul-23 19:27 218 2 gusting 12 30.6
2014-Jul-23 19:12 045 6 gusting 12 30.6
2014-Jul-23 18:57 048 3 gusting 12 30.6
2014-Jul-23 18:42 094 5 gusting 10 31.1
2014-Jul-23 18:28 132 3 gusting 11 30.6
2014-Jul-23 18:11 064 0 gusting 8 31.1
2014-Jul-23 17:57 076 3 gusting 8 30.6
2014-Jul-23 17:41 074 4 gusting 12 31.1
2014-Jul-23 17:26 088 2 gusting 13 31.1
2014-Jul-23 17:11 090 3 gusting 9 30.6
2014-Jul-23 16:57 088 1 gusting 11 30.6
2014-Jul-23 16:26 142 3 gusting 12 29.4
2014-Jul-23 16:10 101 4 gusting 13 29.4
2014-Jul-23 15:55 089 2 gusting 11 28.9
2014-Jul-23 15:41 051 5 gusting 12 29.4
2014-Jul-23 15:11 062 2 gusting 13 28.9
2014-Jul-23 14:55 059 2 gusting 12 28.9
2014-Jul-23 14:41 062 5 gusting 12 29.4
2014-Jul-23 14:26 173 0 gusting 13 28.3
2014-Jul-23 14:10 049 4 gusting 13 28.3
2014-Jul-23 13:55 154 0 gusting 8 27.8
2014-Jul-23 13:25 064 27.8
2014-Jul-23 13:10 024 0 gusting 4 27.2
2014-Jul-23 12:54 065 1 gusting 5 26.7
2014-Jul-23 12:41 142 1 gusting 7 26.7
2014-Jul-23 12:24 047 1 gusting 6 26.7
2014-Jul-23 12:09 048 0 gusting 2 26.7
2014-Jul-23 11:54 042 25.6
2014-Jul-23 11:39 033 0 gusting 2 25.0
2014-Jul-23 11:24 033 24.4
2014-Jul-23 11:09 033 24.4
2014-Jul-23 10:54 033 23.9
2014-Jul-23 10:39 033 23.9
2014-Jul-23 10:24 111 23.9
2014-Jul-23 10:09 005 23.9
2014-Jul-23 09:54 090 23.9
2014-Jul-23 09:39 099 23.9
2014-Jul-23 09:24 110 23.9
2014-Jul-23 09:09 092 24.4
2014-Jul-23 08:54 090 24.4
2014-Jul-23 08:39 080 24.4
2014-Jul-23 08:24 090 24.4
2014-Jul-23 08:09 113 0 gusting 5 24.4
2014-Jul-23 07:54 096 24.4
2014-Jul-23 07:39 116 0 gusting 6 24.4
2014-Jul-23 07:24 074 0 gusting 3 24.4
2014-Jul-23 07:09 121 24.4
2014-Jul-23 06:54 113 24.4
2014-Jul-23 06:39 114 0 gusting 4 24.4
2014-Jul-23 06:23 092 24.4
2014-Jul-23 06:08 088 24.4
2014-Jul-23 05:53 071 24.4
2014-Jul-23 05:38 069 0 gusting 6 23.9
2014-Jul-23 05:23 132 23.9
2014-Jul-23 05:08 148 24.4
2014-Jul-23 04:53 098 24.4
2014-Jul-23 04:38
2014-Jul-23 04:31 094 24.4
2014-Jul-23 04:14 092 24.4
2014-Jul-23 03:59 098 24.4
2014-Jul-23 03:45 076 24.4
2014-Jul-23 03:30 121 24.4
2014-Jul-23 03:15 052 24.4
2014-Jul-23 03:00 122 0 gusting 4 24.4
2014-Jul-23 02:45 142 24.4
2014-Jul-23 02:29 142 24.4
2014-Jul-23 02:14 076 24.4
2014-Jul-23 02:00 094 24.4
2014-Jul-23 01:45 095 24.4
2014-Jul-23 01:30 086 24.4
2014-Jul-23 01:14 100 0 gusting 5 24.4
2014-Jul-23 00:59 125 24.4
2014-Jul-23 00:44 142 1 gusting 6 24.4
2014-Jul-23 00:28 124 2 gusting 7 24.4
2014-Jul-23 00:14 124 1 gusting 4 23.9
2014-Jul-22 23:59 121 0 gusting 4 23.9
2014-Jul-22 23:44 115 24.4
2014-Jul-22 23:29 115 24.4
2014-Jul-22 23:14 084 3 gusting 8 25.0
2014-Jul-22 22:59 138 0 gusting 3 25.0
2014-Jul-22 22:43 136 1 gusting 6 25.0
2014-Jul-22 22:28 123 0 gusting 6 25.6
2014-Jul-22 22:13 106 1 gusting 7 26.1
2014-Jul-22 21:58 097 0 gusting 4 26.7
2014-Jul-22 21:43 106 0 gusting 4 26.7
2014-Jul-22 21:28 054 27.2
2014-Jul-22 21:14 142 0 gusting 3 26.7
2014-Jul-22 20:57 101 0 gusting 4 25.6
2014-Jul-22 20:42 134 0 gusting 4 25.0
2014-Jul-22 20:28 123 0 gusting 6 25.6
2014-Jul-22 19:57 111 2 gusting 7 28.3
2014-Jul-22 19:42 142 2 gusting 6 28.3
2014-Jul-22 19:28 135 0 gusting 4 29.4
2014-Jul-22 19:13 113 3 gusting 8 29.4
2014-Jul-22 18:58 015 2 gusting 8 29.4
2014-Jul-22 18:43 039 0 gusting 6 30.0
2014-Jul-22 18:27 093 2 gusting 9 30.6
2014-Jul-22 18:13 105 3 gusting 7 29.4
2014-Jul-22 17:58 113 3 gusting 9 28.9
2014-Jul-22 17:43 069 0 gusting 6 28.3
2014-Jul-22 17:28 109 1 gusting 10 27.2
2014-Jul-22 17:12 097 1 gusting 7 27.2
2014-Jul-22 16:57 244 3 gusting 8 28.9
2014-Jul-22 16:43 115 3 gusting 9 28.9
2014-Jul-22 16:27 114 1 gusting 8 29.4
2014-Jul-22 16:12 071 3 gusting 9 28.9
2014-Jul-22 15:57 136 0 gusting 6 28.9
2014-Jul-22 15:41 086 2 gusting 6 27.8
2014-Jul-22 15:27 144 0 gusting 5 27.2
2014-Jul-22 15:12 136 1 gusting 8 27.2
2014-Jul-22 14:56 138 26.1
2014-Jul-22 14:41 079 0 gusting 6 25.0
2014-Jul-22 14:26 076 1 gusting 7 26.1
2014-Jul-22 14:11 061 3 gusting 6 26.7
2014-Jul-22 13:57 089 26.7
2014-Jul-22 13:41 076 1 gusting 5 26.1
2014-Jul-22 13:26 103 25.6
2014-Jul-22 13:10 075 24.4
2014-Jul-22 12:56 075 23.9
2014-Jul-22 12:41 075 24.4
2014-Jul-22 12:25 075 23.9
2014-Jul-22 12:10 142 23.3
2014-Jul-22 11:55 142 0 gusting 5 22.8
2014-Jul-22 11:40 108 0 gusting 4 22.8
2014-Jul-22 11:25 045 5 gusting 9 23.3
2014-Jul-22 11:10 254 23.3
2014-Jul-22 10:55 283 23.3
2014-Jul-22 10:40 196 22.8
2014-Jul-22 10:25 195 22.8
2014-Jul-22 10:10 195 22.8
2014-Jul-22 09:55 194 22.2
2014-Jul-22 09:40 194 22.2
2014-Jul-22 09:25 113 22.8
2014-Jul-22 09:09 113 22.8
2014-Jul-22 08:54 148 0 gusting 6 22.8
2014-Jul-22 08:39 141 22.8
2014-Jul-22 08:24 100 2 gusting 8 22.8
2014-Jul-22 08:09 101 23.3
2014-Jul-22 07:54 082 22.8
2014-Jul-22 07:39 082 22.8
2014-Jul-22 07:24 082 22.8
2014-Jul-22 07:09 082 22.8
2014-Jul-22 06:54 082 23.3
2014-Jul-22 06:39 082 23.3
2014-Jul-22 06:24 082 23.3
2014-Jul-22 06:09 082 23.3
2014-Jul-22 05:54 082 23.3
2014-Jul-22 05:39 082 23.3
2014-Jul-22 05:24 082 23.3
2014-Jul-22 05:09 082 23.3
2014-Jul-22 04:54 082 23.9
2014-Jul-22 04:39 082 23.9
2014-Jul-22 04:24 082 0 gusting 1 23.9
2014-Jul-22 04:09 082 23.9
2014-Jul-22 03:54 082 24.4
2014-Jul-22 03:39 082 24.4
2014-Jul-22 03:24 082 24.4
2014-Jul-22 03:09 082 24.4
2014-Jul-22 02:55 082 24.4
2014-Jul-22 02:40 082 24.4
2014-Jul-22 02:25 082 25.0
2014-Jul-22 02:09 082 25.0
2014-Jul-22 01:54 082 25.0
2014-Jul-22 01:39 090 25.0
2014-Jul-22 01:24 090 25.0
2014-Jul-22 01:10 090 24.4
2014-Jul-22 00:55 091 25.0
2014-Jul-22 00:40 085 25.0
2014-Jul-22 00:24 098 25.0
2014-Jul-22 00:09 087 25.0
2014-Jul-21 23:54 088 25.6
2014-Jul-21 23:39 088 25.6
2014-Jul-21 23:23 128 1 gusting 6 25.6
2014-Jul-21 23:09 086 0 gusting 6 26.1
2014-Jul-21 22:54 055 26.1
2014-Jul-21 22:39 150 0 gusting 5 26.7
2014-Jul-21 22:24 073 0 gusting 4 26.7
2014-Jul-21 22:08 101 27.8
2014-Jul-21 21:53 144 27.8
2014-Jul-21 21:38 086 3 gusting 12 28.3
2014-Jul-21 21:24 154 2 gusting 13 28.3
2014-Jul-21 21:09 143 1 gusting 9 27.8